Regional Weather Roundup
Issued by NWS

Home | Current Version | Previous Version | Graphics & Text | Print | Product List | Glossary On
Versions: 1 2 3 4 5 6 7 8 9 10 11 12 13 14 15 16 17 18 19 20 21 22 23 24 25 26 27 28 29 30 31 32 33 34 35 36 37 38 39 40 41 42 43 44 45 46 47 48 49 50
000
ASUS43 KDTX 200010
RWRMI
MICHIGAN HOURLY REGIONAL WEATHER ROUNDUP
NATIONAL WEATHER SERVICE DETROIT/PONTIAC MI
700 PM EST SUN NOV 19 2017

NOTE: "FAIR" INDICATES FEW OR NO CLOUDS BELOW 12,000 FEET WITH NO
SIGNIFICANT WEATHER AND/OR OBSTRUCTION TO VISIBILITY.

MIZ047>049-052>055-059>063-066>070-074>076-081>083-200100-
SOUTHEAST LOWER MICHIGAN

CITY           SKY/WX    TMP DP  RH WIND       PRES   REMARKS
ADRIAN         MOCLDY    30  18  60 NW14G26   30.00R WCI  19
6HR MIN TEMP:  30; 6HR MAX TEMP:  35; 6HR PCP: TRACE;

ALMA           CLOUDY    29  21  71 W10       29.96R WCI  20
6HR MIN TEMP:  29; 6HR MAX TEMP:  33;

ANN ARBOR      CLOUDY    31  18  58 W17G28    29.96R WCI  19
BAD AXE        CLOUDY    30  20  64 NW16G23   29.89R WCI  19
6HR MIN TEMP:  30; 6HR MAX TEMP:  32;

CARO           PTCLDY    29  20  68 W14       29.92R WCI  18
DETROIT CITY   CLOUDY   N/A N/A N/A W15G23    29.95R
DETROIT        CLOUDY    32  20  61 W13       29.93S WCI  22
6HR MIN TEMP:  32; 6HR MAX TEMP:  37; 6HR PCP: TRACE;

FLINT          CLOUDY    30  19  63 W13G22    29.95R WCI  20
6HR MIN TEMP:  30; 6HR MAX TEMP:  34; 6HR PCP: TRACE;

GROSSE ILE     CLOUDY    33  21  63 W13G22    29.96R WCI  23
6HR MIN TEMP:  33; 6HR MAX TEMP:  37;

HILLSDALE      CLOUDY    30  19  64 W13G22    29.97R WCI  20
HOWELL         CLOUDY    30  23  73 W12       29.95R WCI  21
6HR MIN TEMP:  30; 6HR MAX TEMP:  33;


CITY           SKY/WX    TMP DP  RH WIND       PRES   REMARKS
JACKSON        CLOUDY    30  18  60 W12G18    29.97R WCI  20
6HR MIN TEMP:  30; 6HR MAX TEMP:  34; 6HR PCP:  0.01;

LAMBERTVILLE   CLOUDY    35  24  64 W9        29.99R WCI  27
6HR MIN TEMP:  35; 6HR MAX TEMP:  39;

LANSING        CLOUDY    29  19  66 W10G23    29.97R WCI  20
6HR MIN TEMP:  29; 6HR MAX TEMP:  33; 6HR PCP: TRACE;

LAPEER         CLOUDY    31  20  65 NW14G20   29.92R WCI  20
6HR MIN TEMP:  30; 6HR MAX TEMP:  34;

MASON          CLOUDY    32  22  67 W15       29.96R WCI  21
MONROE         CLOUDY    33  21  60 NW8       29.97R WCI  27
6HR MIN TEMP:  33; 6HR MAX TEMP:  38;

MT. CLEMENS    MOCLDY    32  21  63 W20G26    29.91R WCI  20
6HR MIN TEMP:  32; 6HR MAX TEMP:  36; 6HR PCP: TRACE;

PONTIAC        MOCLDY    29  17  61 NW18G29   29.92R WCI  16
6HR MIN TEMP:  29; 6HR MAX TEMP:  32; 6HR PCP: TRACE;

PORT HOPE        N/A     32  17  54 W18G24    29.85R WCI  20
6HR MIN TEMP:  32; 6HR MAX TEMP:  34; 6HR PCP:  0.01;

PORT HURON     FLURRIES  32  23  69 W5        29.91R WCI  27
TRI CITIES     CLOUDY    30  20  66 W12       29.94R WCI  20
6HR MIN TEMP:  29; 6HR MAX TEMP:  35; 6HR PCP: TRACE;

MIDLAND        CLOUDY    30  19  63 W7        29.93R WCI  23
6HR MIN TEMP:  30; 6HR MAX TEMP:  35;

TROY           MOCLDY    32  17  53 W16G22    29.95S WCI  22
SAGINAW HB     CLOUDY    30  19  64 W14       29.93R WCI  20
$$
MIZ043>046-050>051-056>058-064>065-071>073-077>080-200100-
SOUTHWEST LOWER MICHIGAN

CITY           SKY/WX    TMP DP  RH WIND       PRES   REMARKS
BATTLE CREEK   CLOUDY    29  22  75 W7        29.99R WCI  22
6HR MIN TEMP:  29; 6HR MAX TEMP:  32; 6HR PCP: TRACE;

BENTON HARBOR  PTCLDY    34  19  54 W14G20    30.02S WCI  25
6HR MIN TEMP:  32; 6HR MAX TEMP:  35;

BIG RAPIDS     PTCLDY    26  17  71 W6        29.94R WCI  19
6HR MIN TEMP:  26; 6HR MAX TEMP:  30;

COLDWATER      CLOUDY    31  22  69 W8        30.00R WCI  23
6HR MIN TEMP:  31; 6HR MAX TEMP:  33;

FREMONT        FAIR      28  21  73 W3        29.97R
HOLLAND        CLEAR     33  20  58 W9        30.00S WCI  25
6HR MIN TEMP:  31; 6HR MAX TEMP:  33;

GRAND RAPIDS   MOCLDY    30  22  72 W7        29.97S WCI  23
6HR MIN TEMP:  30; 6HR MAX TEMP:  32; 6HR PCP: TRACE;

IONIA          MOCLDY    29  19  67 W9        29.96R WCI  21
6HR MIN TEMP:  29; 6HR MAX TEMP:  33;

KALAMAZOO      MOCLDY    30  19  63 W7        30.00R WCI  23
6HR MIN TEMP:  30; 6HR MAX TEMP:  33;

LUDINGTON      CLOUDY    31  17  56 W9        29.95S WCI  23
6HR MIN TEMP:  28; 6HR MAX TEMP:  31;

MARSHALL       CLOUDY    28  20  72 W7        29.98R WCI  21
6HR MIN TEMP:  28; 6HR MAX TEMP:  32;

MOUNT PLEASANT CLOUDY    29  17  61 W7G17     29.94R WCI  22
6HR MIN TEMP:  29; 6HR MAX TEMP:  35;

MUSKEGON       CLOUDY    33  18  53 W13G23    29.99R WCI  24
6HR MIN TEMP:  31; 6HR MAX TEMP:  33; 6HR PCP: TRACE;

SOUTH HAVEN    PTCLDY    34  20  56 W12G17    30.01S WCI  26
$$
MIZ016>042-200100-
NORTHERN LOWER MICHIGAN

CITY           SKY/WX    TMP DP  RH WIND       PRES   REMARKS
ALPENA         CLOUDY    28  21  75 W10       29.85R WCI  19
6HR MIN TEMP:  28; 6HR MAX TEMP:  32; 6HR PCP: TRACE;

BEAVER ISLAND  CLOUDY    28  17  62 W12G18    29.88R WCI  18
6HR MIN TEMP:  28; 6HR MAX TEMP:  30;

BELLAIRE       CLOUDY    29  21  70 W6        29.90S WCI  23
6HR MIN TEMP:  29; 6HR MAX TEMP:  30;

CADILLAC       MOCLDY    24  17  77 W6        29.89R WCI  16
CHARLEVOIX     CLOUDY    30  20  68 W15G25    29.91R WCI  19
6HR MIN TEMP:  29; 6HR MAX TEMP:  30;

FRANKFORT      CLOUDY    32  18  56 W9G17     29.93R WCI  24
GAYLORD        CLOUDY    24  17  74 W10G20    29.83R WCI  14
6HR MIN TEMP:  24; 6HR MAX TEMP:  25; 6HR PCP:  0.01;

GRAYLING       CLOUDY    25  17  70 W9        29.87R WCI  16
6HR MIN TEMP:  25; 6HR MAX TEMP:  28;

HARBOR SPRINGS CLOUDY    29  18  62 W10G24    29.86R WCI  20
MANISTEE       CLOUDY    31  19  61 W10       29.94S WCI  22
OSCODA         CLOUDY    28  19  69 W13       29.88R WCI  18
6HR MIN TEMP:  28; 6HR MAX TEMP:  31;

PELLSTON       CLOUDY    28  17  63 W10       29.86R WCI  19
6HR MIN TEMP:  27; 6HR MAX TEMP:  29; 6HR PCP: TRACE;

ROGERS CITY    FLURRIES  28  19  67 W9G17     29.85R WCI  20
TRAVERSE CITY  CLOUDY    28  18  66 W5        29.91S WCI  23
6HR MIN TEMP:  28; 6HR MAX TEMP:  29; 6HR PCP: TRACE;

$$
MIZ007>008-015-200100-
EASTERN UPPER MICHIGAN

CITY           SKY/WX    TMP DP  RH WIND       PRES   REMARKS
KINROSS        FLURRIES  24  20  84 W13       29.82R WCI  12
6HR MIN TEMP:  24; 6HR MAX TEMP:  29;

MACKINAC ISLAN CLOUDY    29  19  64 W16G25    29.83R WCI  18
6HR MIN TEMP:  28; 6HR MAX TEMP:  31;

NEWBERRY       CLOUDY    23  16  75 W15G21    29.83R WCI  10
6HR MIN TEMP:  23; 6HR MAX TEMP:  26;

S. S. MARIE    LGT SNOW  27  22  81 W14       29.79R WCI  16
6HR MIN TEMP:  24; 6HR MAX TEMP:  29; 6HR PCP:  0.06;

MUNISING         N/A     24  15  68 SW7       29.86S WCI  16
6HR MIN TEMP:  24; 6HR MAX TEMP:  28;

$$
MIZ004>006-011>014-085-200100-
CENTRAL UPPER MICHIGAN

CITY           SKY/WX    TMP DP  RH WIND       PRES   REMARKS
MANISTIQUE     CLOUDY    24   8  50 W6        29.88S WCI  16
6HR MIN TEMP:  24; 6HR MAX TEMP:  28;

ESCANABA       CLOUDY    24  15  68 CALM      29.90S
6HR MIN TEMP:  24; 6HR MAX TEMP:  27; 6HR PCP: TRACE;

MENOMINEE      CLOUDY    28  13  53 W3        29.92S
6HR MIN TEMP:  26; 6HR MAX TEMP:  30;

SAWYER-GWINN   CLOUDY    21  14  73 SW3       29.84F
$$
MIZ001>003-009>011-084-200100-
WESTERN UPPER MICHIGAN

CITY           SKY/WX    TMP DP  RH WIND       PRES   REMARKS
IRON MOUNTAIN  PTCLDY    23  10  57 W6        29.85S WCI  16
6HR MIN TEMP:  22; 6HR MAX TEMP:  26;

HOUGHTON       CLOUDY    24  16  71 W10       29.80S WCI  14
6HR MIN TEMP:  23; 6HR MAX TEMP:  26;

COPPER HARBOR    N/A     28  16  60 NW12G24   29.81S WCI  18
6HR MIN TEMP:  25; 6HR MAX TEMP:  28;

IRONWOOD       CLOUDY   N/A N/A N/A SW7       29.86S
                                      6HR PCP: TRACE;

$$

ABBREVIATIONS USED IN REMARKS
   TC - TEMPERATURE IN CELSIUS
  WCI - WIND CHILL INDEX
   HX - HEAT INDEX
  VSB - VISIBILITY




USA.gov is the U.S. government's official web portal to all federal, state and local government web resources and services.